STARLINK-34558, 64721

Orbit data source: Space-Track

STARLINK-34558, 64721 is a payload satellite owned by SpaceX/Seattle (US) in LEO that was launched on Sat, 28 Jun 2025 UTC via an FALCON 9 launch vehicle from the Air Force Western Test Range (AFWTR). Payload-class satellites include a variety of spacecraft equipped with specific instruments for various scientific and technological missions. These include communications satellites like Starlink; space stations such as the ISS; scientific satellites like the Hubble; Earth observation satellites from companies like Planet Labs, Umbra, and HawkEye 360; GPS; miniature CubeSats for education and research; and military/defense satellites.

Loading next visibility...
Identifier
64721, 2025-142AB
Orbit
LEO
Country
Flag of USUS
Related business
Manufacturer
SpaceX/Seattle
Mission
Operational Commercial Communications
Bus & Motor
STARLINK V2MO, Unknown motor
Mass
575 kg wet, ~530 kg dry
Launch date (UTC)
2025-06-28 (1 year ago)
Launch vehicle
FALCON 9
Launch site
Air Force Western Test Range (AFWTR)
Object type
Payload
Rocket body
Debris
Shape & HBR
Box + 1 Pan, 17.7 m
Radar Cross Section
41.120 m², Large (>1 m²)

Expand to show TLE details & history
Last TLE update: 1 day ago

TLE from 1 day ago
0 STARLINK-34558
1 64721U 25142AB  26263.39623317  .00008336  00000-0  29401-3 0  9996
2 64721  70.0020 181.2271 0002612 277.5138  82.5740 15.29592863 68681
Epoch: 2026-09-20T09:30Z
TLE epoch observation values (Epoch: 2026-09-20T09:30:34.545Z)
Latitude
-0.00008°
Longitude
39.29212°
Altitude
479.255 km
Speed
7.626 km/s
True Right ascension
12h 04m 54s
True Declination
0° 00' 00"
Sunlit
Object was in daylight at epoch
Visualization orbit readout
Latitude
Unknown
Longitude
Unknown
Altitude
Unknown
Speed
Unknown
Apparent Right ascension
Unknown
Apparent Declination
Unknown
Sunlit
N/A
Visualization observer readout
Local Sidereal Time
09:57:38
Azimuth
Unknown
Elevation
Unknown
Doppler factor
Unknown
Orbital elements
Apogee altitude
476.738 km
Perigee altitude
473.158 km
Semi-major axis
6,853.085 km
Eccentricity
0.00026
Inclination
70.002°
RAAN
181.2271°
Arg. of periapsis
277.5138°
True anomaly
82.60368°
Mean anomaly
82.574°
Eccentric anomaly
82.58884°
Mean motion
3.82573 °/min
Orbital period
94.1 mins
BSTAR
0.00029401
Loading maneuver chart data...
Computing Atmospheric mass density...
Loading historical data...
Loading historical data...
Loading historical data...
Loading historical data...
Loading historical data...
Loading historical data...
Loading historical data...

Documentation

Showing up to 5 results
|